Location: Newark
(55.7717°N, 25.7294°E)
Time: 02:31:15
(UTC+00:00)

ISS - Visible Passes

Search period start: 22 September 2020 00:00
Search period end: 02 October 2020 00:00
Orbit: 419 x 420 km, 51.6° (Epoch: 22 September)

Date Brightness Start Highest point End Pass type
(mag) Time Alt. Az. Time Alt. Az. Time Alt. Az.
22 Sep -3.0 18:09:48 10° SW 18:12:55 35° SSE 18:12:59 35° SSE visible
23 Sep -2.7 17:22:36 10° SW 17:25:37 31° SSE 17:27:27 18° ESE visible
23 Sep -1.8 18:58:50 10° WSW 19:00:24 23° WSW 19:00:24 23° WSW visible
24 Sep -3.2 18:11:30 10° WSW 18:14:42 41° S 18:14:48 41° S visible
25 Sep -3.0 17:24:10 10° WSW 17:27:21 39° S 17:29:08 21° ESE visible
25 Sep -1.6 19:00:41 10° W 19:02:06 21° WSW 19:02:06 21° WSW visible
26 Sep -2.8 16:36:53 10° SW 16:40:00 35° SSE 16:43:08 10° E visible
26 Sep -3.0 18:13:16 10° WSW 18:16:25 38° S 18:16:25 38° S visible
27 Sep -3.0 17:25:52 10° WSW 17:29:04 40° S 17:30:43 23° SE visible
27 Sep -1.2 19:02:38 10° W 19:03:40 16° WSW 19:03:40 16° WSW visible
28 Sep -2.9 16:38:30 10° WSW 16:41:42 41° S 16:44:54 10° ESE visible
28 Sep -2.4 18:15:07 10° W 18:17:58 29° SSW 18:17:58 29° SSW visible
29 Sep -2.6 17:27:38 10° W 17:30:45 34° SSW 17:32:17 22° SE visible
29 Sep -0.8 19:04:55 10° WSW 19:05:14 11° WSW 19:05:14 11° WSW visible
30 Sep -2.7 16:40:12 10° WSW 16:43:22 38° S 16:46:32 10° ESE visible
30 Sep -1.7 18:17:08 10° WSW 18:19:33 19° SSW 18:19:33 19° SSW visible
01 Oct -2.0 17:29:30 10° W 17:32:18 24° SSW 17:33:54 17° SSE visible
